* Astronomy

Members Login
Post Info TOPIC: ARIANE 44L rocket body


L

Posts: 131433
Date:
RE: ARIANE 44L rocket body
Permalink  
 


Update:
The ARIANE 44L rocket body re-entered the Earths atmosphere on the 8th July, 2012 @ 13:00 GMT ± 2 hours.

Inclination: 6.99°
Revolution Number:  38087
Predicted Location:   3.2°S, 223.8°E



__________________


L

Posts: 131433
Date:
Permalink  
 

Update:
The ARIANE 44L rocket body is predicted to re-enter the Earths atmosphere on the 8th July, 2012 @ 13:00 GMT ± 4 hours.

ARIANE 44L RB
1 25493U 98056C   12190.23804644  .24958456 -35378-4  20889-2 0  2474
2 25493 007.0066 014.6248 0066753 236.1289 123.3313 16.30364142380835

Period:       89.99 minutes
Inclination: 6.99°
Apogee:     389 km
Perigee:     159 km 
Revolution Number:  38087
Predicted Location:   3.2°S, 223.8°E



__________________


L

Posts: 131433
Date:
Permalink  
 

Update:
The ARIANE 44L rocket body is predicted to re-enter the Earths atmosphere on the 8th July, 2012 @ 12:20 GMT ± 4 hours.

ARIANE 44L RB
1 25493U 98056C   12190.23804644  .24958456 -35378-4  20889-2 0  2474
2 25493 007.0066 014.6248 0066753 236.1289 123.3313 16.30364142380835

Period:       89.99 minutes
Inclination: 6.99°
Apogee:     389 km
Perigee:     159 km 
Revolution Number:  38087
Predicted Location:   1.1°N, 72.4°E

25493b.gif
Expand (kb, 857 x 564)

 



__________________


L

Posts: 131433
Date:
Permalink  
 

Update:
The ARIANE 44L rocket body is predicted to re-enter the Earths atmosphere on the 8th July, 2012 @ 12:30 GMT ± 8 hours.

ARIANE 44L RB
1 25493U 98056C   12189.93141403  .09518530 -34752-4  10813-2 0  2453
2 25493 006.9885 017.3984 0100030 233.4044 125.8789 16.21873849380782

Period:       89.99 minutes
Inclination: 6.99°
Apogee:     389 km
Perigee:     159 km 
Revolution Number:  38088
Predicted Location:   2.7°S, 102.8°E



__________________


L

Posts: 131433
Date:
Permalink  
 

Update:
The ARIANE 44L rocket body is predicted to re-enter the Earths atmosphere on the 8th July, 2012 @ 14:00 GMT ± 24 hours.

ARIANE 44L RB
1 25493U 98056C   12189.00466412  .05712278 -33584-4  12896-2 0  2424
2 25493 007.0026 025.5624 0148688 217.6967 141.7237 16.06609436380633

Period:       89.99 minutes
Inclination: 7.00°
Apogee:     389 km
Perigee:     159 km 
Revolution Number:  38090
Predicted Location:   3.8°S, 88.8°E



__________________


L

Posts: 131433
Date:
Permalink  
 

An ARIANE 44L rocket body that was launched on the 5th October, 1998, from the Kourou space centre, French Guiana, for the Eutelsat W2 and SIRIUS 3 satellite missions, is predicted to re-enter the Earths atmosphere on the 13th July, 2012 @ --:-- GMT ± -- hours.

ARIANE 44L RB
1 25493U 98056C   12151.24625339  .00861549 -25111-4  11785-2 0  2169
2 25493 007.0064 317.6853 0652463 357.8110 001.9293 14.76335201374972

Period:       97.54 minutes
Inclination: 7.01°
Apogee:     1099 km
Perigee:     183 km 
Revolution Number:  -
Predicted Location:   -



__________________
Page 1 of 1  sorted by
 
Quick Reply

Please log in to post quick replies.



Create your own FREE Forum
Report Abuse
Powered by ActiveBoard